Location: Gu�tanj
(46.5431°N, 14.9692°E)
Time: 15:21:26
(UTC+00:00)

ATLAS CENTAUR R/B - Pass Details

Date: 03 March 2021
Orbit: 475 x 670 km, 64.7° (Epoch: 30 March)

Event Time Altitude Azimuth Distance (km) Brightness Sun altitude
Rises 19:59:11 0° 267° (W) 2,522 5.5 -32.5°
Reaches altitude 10° 20:02:08 10° 293° (WNW) 1,652 4.6 -33.0°
Enters shadow 20:03:16 13° 311° (NW) 1,468 4.2 -33.1°
